Time,TemperatureF,DewpointF,PressureIn,WindDirection,WindDirectionDegrees,WindSpeedMPH,WindSpeedGustMPH,Humidity,HourlyPrecipIn,Conditions,Clouds,dailyrainin,SolarRadiationWatts/m^2,SoftwareType,DateUTC
2013-04-23 00:00:00,59.8,50.7,29.89,SW,229,1.0,3.0,72,0.00,,,0.00,0002,Weather View 32 v70,2013-04-23 07:00:00,
2013-04-23 00:10:00,59.7,51.4,29.89,South,184,0.0,3.0,74,0.00,,,0.00,0001,Weather View 32 v70,2013-04-23 07:10:00,
2013-04-23 00:15:00,59.2,50.9,29.89,SSW,207,0.0,3.0,74,0.00,,,0.00,0002,Weather View 32 v70,2013-04-23 07:15:00,
2013-04-23 00:20:00,59.0,51.1,29.89,SSE,162,0.0,3.0,75,0.00,,,0.00,0001,Weather View 32 v70,2013-04-23 07:20:00,
2013-04-23 00:25:00,58.8,51.2,29.89,SSW,207,0.0,3.0,76,0.00,,,0.00,0001,Weather View 32 v70,2013-04-23 07:25:00,
2013-04-23 00:35:00,58.5,51.6,29.89,ESE,117,0.0,3.0,78,0.00,,,0.00,0002,Weather View 32 v70,2013-04-23 07:35:00,
2013-04-23 00:40:00,58.2,51.7,29.89,ESE,117,0.0,3.0,79,0.00,,,0.00,0001,Weather View 32 v70,2013-04-23 07:40:00,
2013-04-23 00:45:00,57.8,51.7,29.90,SSE,162,1.0,3.0,80,0.00,,,0.00,0002,Weather View 32 v70,2013-04-23 07:45:00,
2013-04-23 00:50:00,57.7,51.9,29.89,WSW,252,0.0,3.0,81,0.00,,,0.00,0001,Weather View 32 v70,2013-04-23 07:50:00,
2013-04-23 01:00:00,57.2,51.7,29.90,South,184,0.0,3.0,82,0.00,,,0.00,0001,Weather View 32 v70,2013-04-23 08:00:00,
2013-04-23 01:05:00,56.8,51.4,29.90,SSE,162,0.0,3.0,82,0.00,,,0.00,0001,Weather View 32 v70,2013-04-23 08:05:00,
2013-04-23 01:10:00,56.6,51.5,29.90,SE,139,0.0,3.0,83,0.00,,,0.00,0001,Weather View 32 v70,2013-04-23 08:10:00,
2013-04-23 01:15:00,56.3,51.5,29.90,ESE,117,0.0,3.0,84,0.00,,,0.00,0001,Weather View 32 v70,2013-04-23 08:15:00,
2013-04-23 01:20:00,56.2,51.7,29.90,South,184,0.0,3.0,85,0.00,,,0.00,0001,Weather View 32 v70,2013-04-23 08:20:00,
2013-04-23 01:30:00,55.9,51.4,29.90,ESE,117,0.0,3.0,85,0.00,,,0.00,0001,Weather View 32 v70,2013-04-23 08:30:00,
2013-04-23 01:35:00,55.6,51.2,29.90,SSW,207,0.0,3.0,85,0.00,,,0.00,0001,Weather View 32 v70,2013-04-23 08:35:00,
2013-04-23 01:40:00,55.7,51.6,29.90,NNW,342,0.0,3.0,86,0.00,,,0.00,0001,Weather View 32 v70,2013-04-23 08:40:00,
2013-04-23 01:45:00,55.7,51.6,29.90,West,274,0.0,2.0,86,0.00,,,0.00,0002,Weather View 32 v70,2013-04-23 08:45:00,
2013-04-23 01:55:00,55.4,51.6,29.90,SSW,207,1.0,2.0,87,0.00,,,0.00,0001,Weather View 32 v70,2013-04-23 08:55:00,
2013-04-23 02:00:00,55.3,51.5,29.90,NNE,27,0.0,2.0,87,0.00,,,0.00,0002,Weather View 32 v70,2013-04-23 09:00:00,
2013-04-23 02:05:00,55.3,51.5,29.89,SW,229,0.0,3.0,87,0.00,,,0.00,0002,Weather View 32 v70,2013-04-23 09:05:00,
2013-04-23 02:10:00,55.5,51.7,29.89,ENE,72,0.0,3.0,87,0.00,,,0.00,0001,Weather View 32 v70,2013-04-23 09:10:00,
2013-04-23 02:20:00,55.2,51.7,29.89,South,184,0.0,3.0,88,0.00,,,0.00,0001,Weather View 32 v70,2013-04-23 09:20:00,
2013-04-23 02:25:00,55.0,51.2,29.89,SSW,207,1.0,3.0,87,0.00,,,0.00,0002,Weather View 32 v70,2013-04-23 09:25:00,
2013-04-23 02:30:00,55.4,51.9,29.89,SSE,162,0.0,4.0,88,0.00,,,0.00,0001,Weather View 32 v70,2013-04-23 09:30:00,
2013-04-23 02:35:00,55.1,51.6,29.89,South,184,0.0,4.0,88,0.00,,,0.00,0002,Weather View 32 v70,2013-04-23 09:35:00,
2013-04-23 02:40:00,54.7,51.5,29.89,NW,319,0.0,4.0,89,0.00,,,0.00,0001,Weather View 32 v70,2013-04-23 09:40:00,
2013-04-23 02:50:00,54.4,50.9,29.89,South,184,0.0,4.0,88,0.00,,,0.00,0001,Weather View 32 v70,2013-04-23 09:50:00,
2013-04-23 02:55:00,54.5,50.7,29.89,SW,229,0.0,4.0,87,0.00,,,0.00,0001,Weather View 32 v70,2013-04-23 09:55:00,
2013-04-23 03:00:00,54.9,50.5,29.89,SW,229,0.0,4.0,85,0.00,,,0.00,0001,Weather View 32 v70,2013-04-23 10:00:00,
2013-04-23 03:05:00,55.8,49.0,29.89,SW,229,2.0,4.0,78,0.00,,,0.00,0001,Weather View 32 v70,2013-04-23 10:05:00,
2013-04-23 03:10:00,59.7,47.9,29.89,SSW,207,2.0,4.0,65,0.00,,,0.00,0002,Weather View 32 v70,2013-04-23 10:10:00,
2013-04-23 03:20:00,63.2,44.7,29.90,SSW,207,3.0,4.0,51,0.00,,,0.00,0001,Weather View 32 v70,2013-04-23 10:20:00,
2013-04-23 03:25:00,63.3,43.8,29.90,SW,229,3.0,4.0,49,0.00,,,0.00,0002,Weather View 32 v70,2013-04-23 10:25:00,
2013-04-23 03:30:00,63.6,43.0,29.90,WSW,252,0.0,4.0,47,0.00,,,0.00,0002,Weather View 32 v70,2013-04-23 10:30:00,
2013-04-23 03:35:00,63.5,41.7,29.90,West,274,1.0,4.0,45,0.00,,,0.00,0002,Weather View 32 v70,2013-04-23 10:35:00,
2013-04-23 03:45:00,64.0,41.0,29.90,West,274,3.0,4.0,43,0.00,,,0.00,0002,Weather View 32 v70,2013-04-23 10:45:00,
2013-04-23 03:50:00,64.4,40.8,29.90,West,274,2.0,4.0,42,0.00,,,0.00,0002,Weather View 32 v70,2013-04-23 10:50:00,
2013-04-23 03:55:00,64.5,40.2,29.90,West,274,3.0,4.0,41,0.00,,,0.00,0001,Weather View 32 v70,2013-04-23 10:55:00,
2013-04-23 04:00:00,64.8,39.2,29.90,WSW,252,3.0,4.0,39,0.00,,,0.00,0002,Weather View 32 v70,2013-04-23 11:00:00,
2013-04-23 04:10:00,64.7,38.4,29.90,WSW,252,3.0,5.0,38,0.00,,,0.00,0002,Weather View 32 v70,2013-04-23 11:10:00,
2013-04-23 04:15:00,65.0,38.0,29.90,West,274,3.0,5.0,37,0.00,,,0.00,0002,Weather View 32 v70,2013-04-23 11:15:00,
2013-04-23 04:20:00,64.3,38.1,29.90,WNW,297,2.0,5.0,38,0.00,,,0.00,0002,Weather View 32 v70,2013-04-23 11:20:00,
2013-04-23 04:25:00,64.8,38.5,29.90,WNW,297,4.0,7.0,38,0.00,,,0.00,0002,Weather View 32 v70,2013-04-23 11:25:00,
2013-04-23 04:35:00,65.2,37.5,29.90,West,274,2.0,7.0,36,0.00,,,0.00,0002,Weather View 32 v70,2013-04-23 11:35:00,
2013-04-23 04:40:00,65.1,37.4,29.90,South,184,1.0,7.0,36,0.00,,,0.00,0001,Weather View 32 v70,2013-04-23 11:40:00,
2013-04-23 04:45:00,64.6,37.7,29.90,ENE,72,0.0,7.0,37,0.00,,,0.00,0001,Weather View 32 v70,2013-04-23 11:45:00,
2013-04-23 04:50:00,63.5,38.0,29.90,SE,139,0.0,7.0,39,0.00,,,0.00,0001,Weather View 32 v70,2013-04-23 11:50:00,
2013-04-23 04:55:00,62.0,38.6,29.91,SE,139,2.0,7.0,42,0.00,,,0.00,0002,Weather View 32 v70,2013-04-23 11:55:00,
2013-04-23 05:05:00,62.5,37.1,29.91,SSW,207,2.0,7.0,39,0.00,,,0.00,0002,Weather View 32 v70,2013-04-23 12:05:00,
2013-04-23 05:10:00,63.7,36.9,29.91,SSW,207,2.0,7.0,37,0.00,,,0.00,0001,Weather View 32 v70,2013-04-23 12:10:00,
2013-04-23 05:15:00,64.0,36.4,29.91,SSW,207,2.0,7.0,36,0.00,,,0.00,0002,Weather View 32 v70,2013-04-23 12:15:00,
2013-04-23 05:20:00,63.5,36.7,29.91,SSW,207,1.0,7.0,37,0.00,,,0.00,0002,Weather View 32 v70,2013-04-23 12:20:00,
2013-04-23 05:25:00,63.1,35.7,29.91,SSE,162,0.0,7.0,36,0.00,,,0.00,0001,Weather View 32 v70,2013-04-23 12:25:00,
2013-04-23 05:35:00,62.7,36.0,29.91,SSE,162,0.0,6.0,37,0.00,,,0.00,0002,Weather View 32 v70,2013-04-23 12:35:00,
2013-04-23 05:40:00,62.2,35.5,29.92,ESE,117,0.0,4.0,37,0.00,,,0.00,0002,Weather View 32 v70,2013-04-23 12:40:00,
2013-04-23 05:45:00,62.2,34.9,29.92,SE,139,0.0,4.0,36,0.00,,,0.00,0002,Weather View 32 v70,2013-04-23 12:45:00,
2013-04-23 05:50:00,62.4,35.0,29.92,NW,319,1.0,4.0,36,0.00,,,0.00,0001,Weather View 32 v70,2013-04-23 12:50:00,
2013-04-23 05:55:00,62.4,35.0,29.92,South,184,0.0,4.0,36,0.00,,,0.00,0002,Weather View 32 v70,2013-04-23 12:55:00,
2013-04-23 06:05:00,62.3,34.2,29.92,SE,139,0.0,4.0,35,0.00,,,0.00,0002,Weather View 32 v70,2013-04-23 13:05:00,
2013-04-23 06:15:00,62.2,34.1,29.92,SSW,207,0.0,4.0,35,0.00,,,0.00,0003,Weather View 32 v70,2013-04-23 13:15:00,
2013-04-23 06:20:00,60.6,34.8,29.93,East,94,4.0,4.0,38,0.00,,,0.00,0005,Weather View 32 v70,2013-04-23 13:20:00,
2013-04-23 06:25:00,59.6,35.2,29.93,SSW,207,0.0,4.0,40,0.00,,,0.00,0009,Weather View 32 v70,2013-04-23 13:25:00,
2013-04-23 06:34:00,59.7,34.6,29.93,South,184,0.0,4.0,39,0.00,,,0.00,0040,Weather View 32 v70,2013-04-23 13:34:00,
2013-04-23 06:40:00,59.7,34.6,29.93,South,184,0.0,4.0,39,0.00,,,0.00,0057,Weather View 32 v70,2013-04-23 13:40:00,
2013-04-23 06:45:00,59.9,34.8,29.93,SSW,207,1.0,4.0,39,0.00,,,0.00,0040,Weather View 32 v70,2013-04-23 13:45:00,
2013-04-23 06:50:00,60.3,35.8,29.94,SSW,207,1.0,4.0,40,0.00,,,0.00,0037,Weather View 32 v70,2013-04-23 13:50:00,
2013-04-23 06:55:00,60.7,35.5,29.93,SSW,207,1.0,4.0,39,0.00,,,0.00,0038,Weather View 32 v70,2013-04-23 13:55:00,
2013-04-23 07:00:00,61.0,36.5,29.94,SSW,207,1.0,4.0,40,0.00,,,0.00,0050,Weather View 32 v70,2013-04-23 14:00:00,
2013-04-23 07:10:00,60.9,38.8,29.94,South,184,1.0,4.0,44,0.00,,,0.00,0157,Weather View 32 v70,2013-04-23 14:10:00,
2013-04-23 07:15:00,62.0,37.3,29.94,SSW,207,2.0,4.0,40,0.00,,,0.00,0171,Weather View 32 v70,2013-04-23 14:15:00,
2013-04-23 07:20:00,63.2,38.4,29.94,SW,229,3.0,4.0,40,0.00,,,0.00,0188,Weather View 32 v70,2013-04-23 14:20:00,
2013-04-23 07:25:00,64.3,36.7,29.94,SW,229,2.0,4.0,36,0.00,,,0.00,0203,Weather View 32 v70,2013-04-23 14:25:00,
2013-04-23 07:30:00,64.6,42.7,29.95,ESE,117,1.0,4.0,45,0.00,,,0.00,0217,Weather View 32 v70,2013-04-23 14:30:00,
2013-04-23 07:40:00,64.4,43.7,29.95,ESE,117,1.0,4.0,47,0.00,,,0.00,0247,Weather View 32 v70,2013-04-23 14:40:00,
2013-04-23 07:45:00,65.2,45.5,29.95,SE,139,0.0,4.0,49,0.00,,,0.00,0263,Weather View 32 v70,2013-04-23 14:45:00,
2013-04-23 07:50:00,65.7,41.3,29.95,SE,139,3.0,6.0,41,0.00,,,0.00,0277,Weather View 32 v70,2013-04-23 14:50:00,
2013-04-23 07:55:00,66.4,40.0,29.95,SE,139,1.0,6.0,38,0.00,,,0.00,0291,Weather View 32 v70,2013-04-23 14:55:00,
2013-04-23 08:00:00,66.9,40.4,29.95,East,94,3.0,6.0,38,0.00,,,0.00,0307,Weather View 32 v70,2013-04-23 15:00:00,
2013-04-23 08:10:00,67.5,34.9,29.96,NNE,27,2.0,9.0,30,0.00,,,0.00,0333,Weather View 32 v70,2013-04-23 15:10:00,
2013-04-23 08:15:00,67.9,34.4,29.96,NNE,27,3.0,9.0,29,0.00,,,0.00,0347,Weather View 32 v70,2013-04-23 15:15:00,
2013-04-23 08:20:00,68.2,34.7,29.96,NNE,27,1.0,9.0,29,0.00,,,0.00,0360,Weather View 32 v70,2013-04-23 15:20:00,
2013-04-23 08:25:00,68.1,33.7,29.96,ENE,72,2.0,9.0,28,0.00,,,0.00,0372,Weather View 32 v70,2013-04-23 15:25:00,
2013-04-23 08:35:00,68.7,34.2,29.96,ESE,117,4.0,9.0,28,0.00,,,0.00,0399,Weather View 32 v70,2013-04-23 15:35:00,
2013-04-23 08:40:00,69.1,36.3,29.96,East,94,3.0,9.0,30,0.00,,,0.00,0411,Weather View 32 v70,2013-04-23 15:40:00,
2013-04-23 08:45:00,69.1,34.5,29.96,ESE,117,6.0,9.0,28,0.00,,,0.00,0424,Weather View 32 v70,2013-04-23 15:45:00,
2013-04-23 08:50:00,69.1,34.5,29.97,NE,49,2.0,11.0,28,0.00,,,0.00,0436,Weather View 32 v70,2013-04-23 15:50:00,
2013-04-23 08:55:00,69.3,33.8,29.96,ESE,117,3.0,11.0,27,0.00,,,0.00,0449,Weather View 32 v70,2013-04-23 15:55:00,
2013-04-23 09:05:00,69.8,34.2,29.96,East,94,5.0,11.0,27,0.00,,,0.00,0479,Weather View 32 v70,2013-04-23 16:05:00,
2013-04-23 09:10:00,69.1,32.7,29.96,North,4,6.0,14.0,26,0.00,,,0.00,0492,Weather View 32 v70,2013-04-23 16:10:00,
2013-04-23 09:15:00,69.6,34.1,29.96,NNE,27,3.0,14.0,27,0.00,,,0.00,0505,Weather View 32 v70,2013-04-23 16:15:00,
2013-04-23 09:20:00,69.9,33.4,29.96,ENE,72,3.0,14.0,26,0.00,,,0.00,0519,Weather View 32 v70,2013-04-23 16:20:00,
2013-04-23 09:27:00,69.8,33.3,29.97,North,4,4.0,14.0,26,0.00,,,0.00,0532,Weather View 32 v70,2013-04-23 16:27:00,
2013-04-23 09:35:00,70.1,33.5,29.97,NNE,27,9.0,14.0,26,0.00,,,0.00,0558,Weather View 32 v70,2013-04-23 16:35:00,
2013-04-23 09:40:00,70.4,33.8,29.97,ESE,117,3.0,14.0,26,0.00,,,0.00,0571,Weather View 32 v70,2013-04-23 16:40:00,
2013-04-23 09:45:00,70.6,34.0,29.96,NNW,342,1.0,14.0,26,0.00,,,0.00,0585,Weather View 32 v70,2013-04-23 16:45:00,
2013-04-23 09:50:00,71.0,34.3,29.96,NNE,27,7.0,14.0,26,0.00,,,0.00,0597,Weather View 32 v70,2013-04-23 16:50:00,
2013-04-23 10:00:00,71.3,34.6,29.97,East,94,6.0,14.0,26,0.00,,,0.00,0622,Weather View 32 v70,2013-04-23 17:00:00,
2013-04-23 10:05:00,71.3,34.6,29.96,SE,139,4.0,14.0,26,0.00,,,0.00,0633,Weather View 32 v70,2013-04-23 17:05:00,
2013-04-23 10:10:00,71.8,35.0,29.96,ESE,117,4.0,14.0,26,0.00,,,0.00,0644,Weather View 32 v70,2013-04-23 17:10:00,
2013-04-23 10:15:00,71.9,34.1,29.96,NE,49,6.0,14.0,25,0.00,,,0.00,0658,Weather View 32 v70,2013-04-23 17:15:00,
2013-04-23 10:20:00,72.0,34.2,29.96,ESE,117,6.0,14.0,25,0.00,,,0.00,0669,Weather View 32 v70,2013-04-23 17:20:00,
2013-04-23 10:25:00,72.3,34.4,29.96,North,4,4.0,14.0,25,0.00,,,0.00,0682,Weather View 32 v70,2013-04-23 17:25:00,
2013-04-23 10:35:00,72.8,34.8,29.96,East,94,3.0,14.0,25,0.00,,,0.00,0703,Weather View 32 v70,2013-04-23 17:35:00,
2013-04-23 10:40:00,73.1,36.1,29.96,NNW,342,3.0,14.0,26,0.00,,,0.00,0712,Weather View 32 v70,2013-04-23 17:40:00,
2013-04-23 10:45:00,73.5,35.4,29.96,NE,49,3.0,14.0,25,0.00,,,0.00,0725,Weather View 32 v70,2013-04-23 17:45:00,
2013-04-23 10:50:00,73.3,35.3,29.96,ENE,72,7.0,14.0,25,0.00,,,0.00,0735,Weather View 32 v70,2013-04-23 17:50:00,
2013-04-23 10:55:00,73.5,35.4,29.96,NNE,27,8.0,14.0,25,0.00,,,0.00,0745,Weather View 32 v70,2013-04-23 17:55:00,
2013-04-23 11:05:00,73.5,35.4,29.96,NW,319,1.0,12.0,25,0.00,,,0.00,0764,Weather View 32 v70,2013-04-23 18:05:00,
2013-04-23 11:10:00,73.8,35.7,29.95,NW,319,9.0,12.0,25,0.00,,,0.00,0770,Weather View 32 v70,2013-04-23 18:10:00,
2013-04-23 11:15:00,74.2,35.0,29.96,NNE,27,7.0,12.0,24,0.00,,,0.00,0776,Weather View 32 v70,2013-04-23 18:15:00,
2013-04-23 11:20:00,74.3,35.1,29.96,SE,139,4.0,12.0,24,0.00,,,0.00,0784,Weather View 32 v70,2013-04-23 18:20:00,
2013-04-23 11:25:00,74.6,35.3,29.95,SSW,207,2.0,12.0,24,0.00,,,0.00,0790,Weather View 32 v70,2013-04-23 18:25:00,
2013-04-23 11:35:00,74.3,35.1,29.95,WNW,297,4.0,12.0,24,0.00,,,0.00,0801,Weather View 32 v70,2013-04-23 18:35:00,
2013-04-23 11:40:00,75.5,37.1,29.95,ENE,72,4.0,12.0,25,0.00,,,0.00,0806,Weather View 32 v70,2013-04-23 18:40:00,
2013-04-23 11:45:00,75.2,34.8,29.95,NE,49,7.0,12.0,23,0.00,,,0.00,0811,Weather View 32 v70,2013-04-23 18:45:00,
2013-04-23 11:50:00,75.9,36.4,29.95,SE,139,3.0,12.0,24,0.00,,,0.00,0814,Weather View 32 v70,2013-04-23 18:50:00,
2013-04-23 11:55:00,76.2,36.7,29.95,ENE,72,9.0,12.0,24,0.00,,,0.00,0820,Weather View 32 v70,2013-04-23 18:55:00,
2013-04-23 12:05:00,76.0,35.4,29.95,NNE,27,3.0,11.0,23,0.00,,,0.00,0827,Weather View 32 v70,2013-04-23 19:05:00,
2013-04-23 12:10:00,76.4,35.8,29.95,WSW,252,4.0,11.0,23,0.00,,,0.00,0827,Weather View 32 v70,2013-04-23 19:10:00,
2013-04-23 12:15:00,75.6,35.1,29.95,NW,319,3.0,11.0,23,0.00,,,0.00,0833,Weather View 32 v70,2013-04-23 19:15:00,
2013-04-23 12:20:00,76.5,35.8,29.95,South,184,1.0,11.0,23,0.00,,,0.00,0836,Weather View 32 v70,2013-04-23 19:20:00,
2013-04-23 12:25:00,77.0,37.3,29.94,NNE,27,5.0,11.0,24,0.00,,,0.00,0838,Weather View 32 v70,2013-04-23 19:25:00,
2013-04-23 12:30:00,76.6,35.9,29.95,North,4,3.0,11.0,23,0.00,,,0.00,0842,Weather View 32 v70,2013-04-23 19:30:00,
2013-04-23 12:40:00,76.7,34.9,29.94,NE,49,5.0,11.0,22,0.00,,,0.00,0845,Weather View 32 v70,2013-04-23 19:40:00,
2013-04-23 12:45:00,77.5,36.7,29.94,North,4,4.0,11.0,23,0.00,,,0.00,0845,Weather View 32 v70,2013-04-23 19:45:00,
2013-04-23 12:50:00,77.5,36.7,29.94,NNE,27,6.0,11.0,23,0.00,,,0.00,0847,Weather View 32 v70,2013-04-23 19:50:00,
2013-04-23 12:55:00,76.9,36.2,29.94,WNW,297,6.0,11.0,23,0.00,,,0.00,0850,Weather View 32 v70,2013-04-23 19:55:00,
2013-04-23 13:05:00,77.8,35.8,29.93,WNW,297,2.0,11.0,22,0.00,,,0.00,0851,Weather View 32 v70,2013-04-23 20:05:00,
2013-04-23 13:10:00,78.6,37.6,29.93,East,94,3.0,9.0,23,0.00,,,0.00,0853,Weather View 32 v70,2013-04-23 20:10:00,
2013-04-23 13:15:00,79.7,38.5,29.93,North,4,4.0,10.0,23,0.00,,,0.00,0852,Weather View 32 v70,2013-04-23 20:15:00,
2013-04-23 13:20:00,79.6,38.4,29.92,East,94,1.0,10.0,23,0.00,,,0.00,0852,Weather View 32 v70,2013-04-23 20:20:00,
2013-04-23 13:25:00,80.0,38.8,29.92,SE,139,4.0,10.0,23,0.00,,,0.00,0849,Weather View 32 v70,2013-04-23 20:25:00,
2013-04-23 13:35:00,79.3,37.1,29.92,ESE,117,4.0,10.0,22,0.00,,,0.00,0846,Weather View 32 v70,2013-04-23 20:35:00,
2013-04-23 13:40:00,79.1,36.9,29.92,NW,319,1.0,10.0,22,0.00,,,0.00,0846,Weather View 32 v70,2013-04-23 20:40:00,
2013-04-23 13:45:00,80.1,37.7,29.92,ENE,72,3.0,10.0,22,0.00,,,0.00,0844,Weather View 32 v70,2013-04-23 20:45:00,
2013-04-23 13:50:00,79.9,37.6,29.91,East,94,0.0,10.0,22,0.00,,,0.00,0837,Weather View 32 v70,2013-04-23 20:50:00,
2013-04-23 14:00:00,79.4,36.0,29.91,NW,319,4.0,10.0,21,0.00,,,0.00,0831,Weather View 32 v70,2013-04-23 21:00:00,
2013-04-23 14:05:00,80.0,36.5,29.91,ESE,117,4.0,10.0,21,0.00,,,0.00,0826,Weather View 32 v70,2013-04-23 21:05:00,
2013-04-23 14:10:00,80.9,38.4,29.91,NNE,27,3.0,10.0,22,0.00,,,0.00,0824,Weather View 32 v70,2013-04-23 21:10:00,
2013-04-23 14:15:00,79.5,36.0,29.91,NNW,342,2.0,10.0,21,0.00,,,0.00,0818,Weather View 32 v70,2013-04-23 21:15:00,
2013-04-23 14:20:00,81.1,38.5,29.91,ESE,117,5.0,8.0,22,0.00,,,0.00,0811,Weather View 32 v70,2013-04-23 21:20:00,
2013-04-23 14:30:00,80.5,36.9,29.91,SE,139,2.0,8.0,21,0.00,,,0.00,0801,Weather View 32 v70,2013-04-23 21:30:00,
2013-04-23 14:40:00,81.2,37.4,29.90,South,184,3.0,8.0,21,0.00,,,0.00,0790,Weather View 32 v70,2013-04-23 21:40:00,
2013-04-23 14:45:00,81.2,37.4,29.90,West,274,3.0,9.0,21,0.00,,,0.00,0784,Weather View 32 v70,2013-04-23 21:45:00,
2013-04-23 14:50:00,82.0,39.3,29.90,ENE,72,3.0,9.0,22,0.00,,,0.00,0778,Weather View 32 v70,2013-04-23 21:50:00,
2013-04-23 14:55:00,82.0,36.9,29.89,SW,229,2.0,9.0,20,0.00,,,0.00,0772,Weather View 32 v70,2013-04-23 21:55:00,
2013-04-23 15:05:00,82.2,39.5,29.89,ESE,117,4.0,9.0,22,0.00,,,0.00,0758,Weather View 32 v70,2013-04-23 22:05:00,
2013-04-23 15:10:00,81.7,37.9,29.89,ESE,117,4.0,9.0,21,0.00,,,0.00,0749,Weather View 32 v70,2013-04-23 22:10:00,
2013-04-23 15:15:00,81.5,36.4,29.89,SSW,207,1.0,9.0,20,0.00,,,0.00,0741,Weather View 32 v70,2013-04-23 22:15:00,
2013-04-23 15:20:00,81.8,44.4,29.89,NW,319,3.0,9.0,27,0.00,,,0.00,0731,Weather View 32 v70,2013-04-23 22:20:00,
2013-04-23 15:25:00,81.5,45.2,29.89,WNW,297,7.0,11.0,28,0.00,,,0.00,0718,Weather View 32 v70,2013-04-23 22:25:00,
2013-04-23 15:30:00,79.7,45.4,29.89,WNW,297,5.0,11.0,30,0.00,,,0.00,0708,Weather View 32 v70,2013-04-23 22:30:00,
2013-04-23 15:40:00,79.7,43.6,29.89,NW,319,6.0,11.0,28,0.00,,,0.00,0695,Weather View 32 v70,2013-04-23 22:40:00,
2013-04-23 15:45:00,80.5,43.3,29.89,West,274,6.0,11.0,27,0.00,,,0.00,0685,Weather View 32 v70,2013-04-23 22:45:00,
2013-04-23 15:50:00,80.5,44.3,29.88,NW,319,7.0,11.0,28,0.00,,,0.00,0677,Weather View 32 v70,2013-04-23 22:50:00,
2013-04-23 15:55:00,80.2,44.0,29.88,West,274,5.0,11.0,28,0.00,,,0.00,0666,Weather View 32 v70,2013-04-23 22:55:00,
2013-04-23 16:05:00,80.3,44.1,29.88,NW,319,5.0,11.0,28,0.00,,,0.00,0646,Weather View 32 v70,2013-04-23 23:05:00,
2013-04-23 16:10:00,80.5,44.3,29.87,NW,319,7.0,11.0,28,0.00,,,0.00,0636,Weather View 32 v70,2013-04-23 23:10:00,
2013-04-23 16:15:00,80.4,45.1,29.87,NW,319,6.0,11.0,29,0.00,,,0.00,0620,Weather View 32 v70,2013-04-23 23:15:00,
2013-04-23 16:20:00,80.4,44.2,29.87,WNW,297,6.0,11.0,28,0.00,,,0.00,0609,Weather View 32 v70,2013-04-23 23:20:00,
2013-04-23 16:29:00,80.3,45.9,29.87,WNW,297,7.0,11.0,30,0.00,,,0.00,0584,Weather View 32 v70,2013-04-23 23:29:00,
2013-04-23 16:35:00,80.9,47.3,29.87,NW,319,4.0,11.0,31,0.00,,,0.00,0571,Weather View 32 v70,2013-04-23 23:35:00,
2013-04-23 16:40:00,80.1,45.8,29.87,West,274,4.0,10.0,30,0.00,,,0.00,0557,Weather View 32 v70,2013-04-23 23:40:00,
2013-04-23 16:45:00,80.4,47.7,29.87,SSW,207,4.0,10.0,32,0.00,,,0.00,0545,Weather View 32 v70,2013-04-23 23:45:00,
2013-04-23 16:50:00,80.6,47.1,29.86,NNE,27,1.0,10.0,31,0.00,,,0.00,0534,Weather View 32 v70,2013-04-23 23:50:00,
2013-04-23 16:55:00,81.0,49.1,29.86,West,274,4.0,10.0,33,0.00,,,0.00,0517,Weather View 32 v70,2013-04-23 23:55:00,
2013-04-23 17:05:00,79.9,49.7,29.86,NW,319,3.0,10.0,35,0.00,,,0.00,0492,Weather View 32 v70,2013-04-24 00:05:00,
2013-04-23 17:10:00,79.2,49.1,29.86,WSW,252,3.0,12.0,35,0.00,,,0.00,0479,Weather View 32 v70,2013-04-24 00:10:00,
2013-04-23 17:15:00,79.2,47.5,29.86,SSW,207,7.0,12.0,33,0.00,,,0.00,0465,Weather View 32 v70,2013-04-24 00:15:00,
2013-04-23 17:20:00,78.6,47.8,29.86,SSW,207,7.0,12.0,34,0.00,,,0.00,0450,Weather View 32 v70,2013-04-24 00:20:00,
2013-04-23 17:25:00,78.5,47.7,29.86,SW,229,5.0,12.0,34,0.00,,,0.00,0439,Weather View 32 v70,2013-04-24 00:25:00,
2013-04-23 17:32:00,78.3,46.7,29.86,WSW,252,4.0,12.0,33,0.00,,,0.00,0427,Weather View 32 v70,2013-04-24 00:32:00,
2013-04-23 17:40:00,78.1,47.4,29.86,West,274,5.0,13.0,34,0.00,,,0.00,0398,Weather View 32 v70,2013-04-24 00:40:00,
2013-04-23 17:45:00,77.8,47.1,29.86,West,274,5.0,13.0,34,0.00,,,0.00,0384,Weather View 32 v70,2013-04-24 00:45:00,
2013-04-23 17:50:00,77.6,47.7,29.86,WNW,297,3.0,13.0,35,0.00,,,0.00,0370,Weather View 32 v70,2013-04-24 00:50:00,
2013-04-23 17:55:00,77.1,47.3,29.86,West,274,10.0,13.0,35,0.00,,,0.00,0358,Weather View 32 v70,2013-04-24 00:55:00,
2013-04-23 18:05:00,76.1,47.1,29.86,West,274,9.0,13.0,36,0.00,,,0.00,0330,Weather View 32 v70,2013-04-24 01:05:00,
2013-04-23 18:10:00,76.0,45.5,29.86,West,274,6.0,13.0,34,0.00,,,0.00,0317,Weather View 32 v70,2013-04-24 01:10:00,
2013-04-23 18:15:00,75.6,44.4,29.86,West,274,7.0,15.0,33,0.00,,,0.00,0303,Weather View 32 v70,2013-04-24 01:15:00,
2013-04-23 18:20:00,75.1,44.0,29.86,West,274,9.0,15.0,33,0.00,,,0.00,0288,Weather View 32 v70,2013-04-24 01:20:00,
2013-04-23 18:25:00,74.7,43.6,29.86,NW,319,6.0,15.0,33,0.00,,,0.00,0274,Weather View 32 v70,2013-04-24 01:25:00,
2013-04-23 18:30:00,74.3,42.5,29.85,WSW,252,8.0,15.0,32,0.00,,,0.00,0260,Weather View 32 v70,2013-04-24 01:30:00,
2013-04-23 18:40:00,74.0,41.4,29.86,SW,229,4.0,16.0,31,0.00,,,0.00,0230,Weather View 32 v70,2013-04-24 01:40:00,
2013-04-23 18:45:00,73.9,41.3,29.85,WSW,252,4.0,16.0,31,0.00,,,0.00,0213,Weather View 32 v70,2013-04-24 01:45:00,
2013-04-23 18:50:00,73.6,41.0,29.86,WNW,297,6.0,16.0,31,0.00,,,0.00,0196,Weather View 32 v70,2013-04-24 01:50:00,
2013-04-23 18:55:00,73.3,41.6,29.85,West,274,6.0,16.0,32,0.00,,,0.00,0043,Weather View 32 v70,2013-04-24 01:55:00,
2013-04-23 19:00:00,73.0,41.3,29.85,West,274,5.0,16.0,32,0.00,,,0.00,0034,Weather View 32 v70,2013-04-24 02:00:00,
2013-04-23 19:05:00,72.6,41.0,29.85,West,274,9.0,16.0,32,0.00,,,0.00,0032,Weather View 32 v70,2013-04-24 02:05:00,
2013-04-23 19:15:00,72.5,40.9,29.85,SW,229,4.0,17.0,32,0.00,,,0.00,0027,Weather View 32 v70,2013-04-24 02:15:00,
2013-04-23 19:20:00,72.3,42.3,29.86,SW,229,9.0,17.0,34,0.00,,,0.00,0024,Weather View 32 v70,2013-04-24 02:20:00,
2013-04-23 19:30:00,71.9,42.7,29.86,WNW,297,4.0,17.0,35,0.00,,,0.00,0019,Weather View 32 v70,2013-04-24 02:30:00,
2013-04-23 19:35:00,71.8,44.8,29.86,SW,229,3.0,17.0,38,0.00,,,0.00,0016,Weather View 32 v70,2013-04-24 02:35:00,
2013-04-23 19:44:00,71.3,47.6,29.87,ESE,117,1.0,17.0,43,0.00,,,0.00,0011,Weather View 32 v70,2013-04-24 02:44:00,
2013-04-23 19:50:00,70.9,46.0,29.87,NE,49,3.0,17.0,41,0.00,,,0.00,0007,Weather View 32 v70,2013-04-24 02:50:00,
2013-04-23 20:00:00,69.2,48.6,29.87,East,94,3.0,17.0,48,0.00,,,0.00,0003,Weather View 32 v70,2013-04-24 03:00:00,
2013-04-23 20:15:00,66.8,51.5,29.88,ESE,117,2.0,16.0,58,0.00,,,0.00,0002,Weather View 32 v70,2013-04-24 03:15:00,
2013-04-23 20:25:00,66.0,53.0,29.88,East,94,1.0,16.0,63,0.00,,,0.00,0002,Weather View 32 v70,2013-04-24 03:25:00,
2013-04-23 20:34:00,65.0,52.5,29.88,South,184,0.0,16.0,64,0.00,,,0.00,0002,Weather View 32 v70,2013-04-24 03:34:00,
2013-04-23 20:45:00,62.8,51.7,29.89,SSW,207,0.0,6.0,67,0.00,,,0.00,0002,Weather View 32 v70,2013-04-24 03:45:00,
2013-04-23 20:50:00,62.5,51.8,29.89,SSE,162,0.0,6.0,68,0.00,,,0.00,0002,Weather View 32 v70,2013-04-24 03:50:00,
2013-04-23 20:55:00,62.1,52.2,29.89,SSE,162,0.0,6.0,70,0.00,,,0.00,0002,Weather View 32 v70,2013-04-24 03:55:00,
2013-04-23 21:05:00,61.3,52.2,29.90,SSE,162,0.0,5.0,72,0.00,,,0.00,0001,Weather View 32 v70,2013-04-24 04:05:00,
2013-04-23 21:10:00,60.6,51.9,29.90,South,184,0.0,5.0,73,0.00,,,0.00,0002,Weather View 32 v70,2013-04-24 04:10:00,
2013-04-23 21:15:00,59.8,51.5,29.90,SE,139,0.0,4.0,74,0.00,,,0.00,0001,Weather View 32 v70,2013-04-24 04:15:00,
2013-04-23 21:20:00,59.4,52.2,29.90,ESE,117,1.0,3.0,77,0.00,,,0.00,0002,Weather View 32 v70,2013-04-24 04:20:00,
2013-04-23 21:25:00,59.1,52.6,29.91,ESE,117,0.0,3.0,79,0.00,,,0.00,0001,Weather View 32 v70,2013-04-24 04:25:00,
2013-04-23 21:30:00,58.9,53.1,29.91,SE,139,0.0,3.0,81,0.00,,,0.00,0001,Weather View 32 v70,2013-04-24 04:30:00,
2013-04-23 21:34:00,58.9,53.1,29.91,SE,139,0.0,3.0,81,0.00,,,0.00,0001,Weather View 32 v70,2013-04-24 04:34:00,
2013-04-23 21:40:00,58.0,52.5,29.91,ENE,72,0.0,3.0,82,0.00,,,0.00,0001,Weather View 32 v70,2013-04-24 04:40:00,
2013-04-23 21:45:00,57.7,52.6,29.91,SSE,162,0.0,3.0,83,0.00,,,0.00,0002,Weather View 32 v70,2013-04-24 04:45:00,
2013-04-23 21:50:00,57.3,52.2,29.91,SE,139,0.0,3.0,83,0.00,,,0.00,0001,Weather View 32 v70,2013-04-24 04:50:00,
2013-04-23 21:55:00,56.9,51.8,29.91,West,274,0.0,3.0,83,0.00,,,0.00,0001,Weather View 32 v70,2013-04-24 04:55:00,
2013-04-23 22:00:00,57.0,52.2,29.92,WNW,297,0.0,3.0,84,0.00,,,0.00,0001,Weather View 32 v70,2013-04-24 05:00:00,
2013-04-23 22:10:00,56.2,52.1,29.92,South,184,2.0,3.0,86,0.00,,,0.00,0002,Weather View 32 v70,2013-04-24 05:10:00,
2013-04-23 22:15:00,56.1,52.3,29.92,South,184,0.0,3.0,87,0.00,,,0.00,0001,Weather View 32 v70,2013-04-24 05:15:00,
2013-04-23 22:20:00,55.9,52.7,29.91,SSW,207,0.0,3.0,89,0.00,,,0.00,0001,Weather View 32 v70,2013-04-24 05:20:00,
2013-04-23 22:25:00,55.7,52.8,29.91,SE,139,0.0,3.0,90,0.00,,,0.00,0002,Weather View 32 v70,2013-04-24 05:25:00,
2013-04-23 22:30:00,55.2,52.6,29.91,SW,229,0.0,3.0,91,0.00,,,0.00,0001,Weather View 32 v70,2013-04-24 05:30:00,
2013-04-23 22:35:00,55.1,52.8,29.91,SW,229,0.0,3.0,92,0.00,,,0.00,0001,Weather View 32 v70,2013-04-24 05:35:00,
2013-04-23 22:45:00,55.1,53.4,29.91,WSW,252,0.0,3.0,94,0.00,,,0.00,0002,Weather View 32 v70,2013-04-24 05:45:00,
2013-04-23 22:50:00,55.0,53.3,29.91,NW,319,0.0,3.0,94,0.00,,,0.00,0002,Weather View 32 v70,2013-04-24 05:50:00,
2013-04-23 22:55:00,55.0,53.3,29.91,WSW,252,0.0,3.0,94,0.00,,,0.00,0001,Weather View 32 v70,2013-04-24 05:55:00,
2013-04-23 23:00:00,54.9,53.5,29.91,West,274,0.0,3.0,95,0.00,,,0.00,0001,Weather View 32 v70,2013-04-24 06:00:00,
2013-04-23 23:05:00,54.7,53.3,29.91,SW,229,0.0,3.0,95,0.00,,,0.00,0002,Weather View 32 v70,2013-04-24 06:05:00,
2013-04-23 23:10:00,54.5,53.1,29.91,SW,229,0.0,2.0,95,0.00,,,0.00,0001,Weather View 32 v70,2013-04-24 06:10:00,
2013-04-23 23:20:00,53.9,52.8,29.91,SSW,207,0.0,1.0,96,0.00,,,0.00,0001,Weather View 32 v70,2013-04-24 06:20:00,
2013-04-23 23:25:00,53.6,52.5,29.91,SW,229,0.0,1.0,96,0.00,,,0.00,0002,Weather View 32 v70,2013-04-24 06:25:00,
2013-04-23 23:30:00,53.4,52.3,29.91,WSW,252,0.0,0.0,96,0.00,,,0.00,0002,Weather View 32 v70,2013-04-24 06:30:00,
2013-04-23 23:35:00,53.2,52.1,29.91,South,184,0.0,0.0,96,0.00,,,0.00,0002,Weather View 32 v70,2013-04-24 06:35:00,
2013-04-23 23:40:00,52.9,51.8,29.91,SSE,162,0.0,0.0,96,0.00,,,0.00,0002,Weather View 32 v70,2013-04-24 06:40:00,
2013-04-23 23:50:00,52.4,51.6,29.91,South,184,0.0,0.0,97,0.00,,,0.00,0001,Weather View 32 v70,2013-04-24 06:50:00,
2013-04-23 23:55:00,52.3,51.8,29.91,WSW,252,0.0,0.0,98,0.00,,,0.00,0001,Weather View 32 v70,2013-04-24 06:55:00,